User: anonymous   Login
Location: Ariel
(45.9570°N, 122.5700°W)
Time: 23:49:41
(UTC-07:00)
Language:

ZACube-1 - Orbit

View from above orbital plane
View from above orbital plane
View from above satellite
View from above satellite

Ground track
Ground track

The orbit data is extracted from the following two-line orbital elements,

1 39417U 13066B   19286.91693516 +.00000214 +00000-0 +33246-4 0  9995
2 39417 097.5626 293.8310 0059205 011.1383 349.1126 14.81160183318398
Epoch (UTC): 13 October 2019 22:00:23
Eccentricity: 0.0059205
inclination: 97.5626°
perigee height: 584 km
apogee height: 667 km
right ascension of ascending node: 293.8310°
argument of perigee: 11.1383°
revolutions per day: 14.81160183
mean anomaly at epoch: 349.1126°
orbit number at epoch: 31839

The dashed part of the orbit path shows where the satellite is in the earth's shadow,  

DLR